Location: Kalberh�ni
(46.4610°N, 7.2453°E)
Time: 21:53:34
(UTC+00:00)

Cosmos 2333 Rocket - Pass Details

Date: 31 October 2021
Orbit: 837 x 865 km, 70.8° (Epoch: 30 November)

Event Time Altitude Azimuth Distance (km) Brightness Sun altitude
Rises 16:54:40 0° 182° (S) 3,386 5.6 -7.0°
Reaches altitude 10° 16:57:13 10° 175° (S) 2,459 4.7 -7.4°
Maximum altitude 17:02:27 41° 107° (ESE) 1,225 2.7 -8.3°
Drops below altitude 10° 17:07:45 10° 40° (NE) 2,493 4.2 -9.2°
Enters shadow 17:10:20 - 33° (NNE) 3,437 5.0 -9.6°
